[[{"header":{"parameterUnit":"m.s-1","parameterCategory":1,"la1":30.2991,"la2":30.254,"lo1":-89.0895,"lo2":-89.0444,"dx":0.0017,"dy":0.0017,"nx":28,"ny":28,"refTime":"2022-11-03T21:00:00:Z","depth":0,"parameterNumber":2,"parameterNumberName":"U-component_of_WINDS"},"data":[0,0,0,0,0,0,0,0,0,0,0,0,0,0,0,0,0,0,0,0,0,0,0,0,0,0,0,0,0,0,0,0,0,0,0,0,0,0,0,0,0,0,0,0,0,0,0,0,0,0,0,0,0,0,0,0,0,0,-1.6327,-1.6328,0,-1.6438,-1.6439,-1.644,-1.6498,-1.6498,-1.6498,-1.6498,-1.6617,-1.662,-1.6623,0,0,0,0,0,0,0,0,0,0,0,0,0,-1.6171,-1.6173,-1.6327,-1.6328,-1.633,-1.6437,-1.6439,-1.6441,-1.6498,-1.6498,-1.6498,-1.6498,-1.6616,-1.6619,-1.6623,0,0,0,0,0,0,0,0,0,0,0,0,0,-1.6256,-1.6174,-1.6327,-1.6371,-1.6376,-1.6437,-1.6439,-1.6441,-1.6498,-1.6498,-1.6498,-1.6498,-1.6614,-1.6619,-1.6623,-1.665,0,0,-1.6638,-1.664,0,0,0,0,0,0,0,0,-1.6251,-1.6262,-1.6363,-1.6368,-1.6374,-1.6454,-1.6428,-1.6511,-1.6498,-1.6452,-1.6498,-1.6499,-1.6563,-1.6572,-1.6592,-1.6655,-1.666,-1.6638,-1.6641,-1.6643,-1.6644,0,0,0,0,0,0,0,-1.6245,-1.6257,-1.6371,-1.6365,-1.6371,-1.6388,-1.64,-1.6444,-1.6506,-1.6456,-1.6461,-1.6473,-1.6566,-1.6588,-1.6596,-1.6662,-1.6638,-1.6642,-1.6645,-1.6647,-1.6755,-1.6755,0,0,0,0,0,0,-1.6231,-1.6252,-1.6367,-1.6374,-1.6311,-1.639,-1.6404,-1.6428,-1.6505,-1.6517,-1.6472,-1.6475,-1.658,-1.659,-1.66,-1.6637,-1.6643,-1.6647,-1.665,-1.6755,-1.6755,-1.6755,0,0,0,0,0,0,-1.6228,-1.6241,-1.6363,-1.6314,-1.6331,-1.6393,-1.642,-1.6431,-1.6452,-1.6518,-1.6529,-1.6483,-1.658,-1.6593,-1.6637,-1.6642,-1.6649,-1.6653,-1.6754,-1.6755,-1.6755,-1.671,0,0,0,0,0,0,-1.6223,-1.6239,-1.6248,-1.6314,-1.6333,-1.6396,-1.642,-1.6433,-1.646,-1.6464,-1.6531,-1.6542,-1.6581,-1.663,-1.6642,-1.6648,-1.6657,-1.6754,-1.6754,-1.6755,-1.6711,-1.6709,-1.6706,0,0,0,0,0,-1.6217,-1.6232,-1.6249,-1.6262,-1.6346,-1.6396,-1.6408,-1.6451,-1.646,-1.6471,-1.6513,-1.654,-1.6639,-1.6634,-1.6648,-1.6656,-1.6754,-1.6754,-1.6755,-1.6713,-1.6709,-1.6706,0,0,0,0,0,0,-1.6167,-1.6242,-1.6261,-1.6297,-1.634,-1.6406,-1.6421,-1.6446,-1.6489,-1.6491,-1.6545,-1.656,-1.6599,-1.6632,-1.6624,-1.6686,-1.67,-1.6703,-1.6663,-1.666,-1.6658,-1.6649,-1.6661,0,0,0,0,0,-1.616,-1.6193,-1.6257,-1.6283,-1.6303,-1.6358,-1.6382,-1.6412,-1.6459,-1.6478,-1.6523,-1.6569,-1.6611,-1.6638,-1.668,-1.6717,-1.6733,-1.6729,-1.6727,-1.6724,-1.6726,-1.675,-1.6749,-1.6755,-1.6755,-1.6755,0,0,-1.6146,-1.6191,-1.6209,-1.6274,-1.6311,-1.6346,-1.6373,-1.6409,-1.6436,-1.6484,-1.6527,-1.6562,-1.6618,-1.6658,-1.6679,-1.6687,-1.6728,-1.6725,-1.6722,-1.6726,-1.675,-1.675,-1.6749,-1.6756,-1.6756,-1.6756,0,0,-1.6139,-1.6175,-1.6201,-1.6238,-1.6292,-1.6329,-1.6335,-1.6398,-1.6422,-1.6467,-1.6504,-1.6538,-1.6609,-1.6647,-1.6676,-1.6684,-1.6711,-1.6697,-1.6684,-1.6706,-1.6705,-1.6705,-1.6709,-1.671,-1.6699,-1.6698,-1.6698,0,-1.6115,-1.6167,-1.6212,-1.6245,-1.6274,-1.6318,-1.6346,-1.638,-1.6446,-1.6466,-1.6474,-1.6564,-1.6605,-1.6655,-1.6657,-1.6679,-1.6689,-1.6689,-1.6701,-1.6702,-1.6702,-1.6707,-1.6708,-1.6696,-1.6697,-1.6697,-1.6697,0,-1.6136,-1.6172,-1.6187,-1.6248,-1.6278,-1.6309,-1.636,-1.6386,-1.6414,-1.645,-1.6496,-1.6546,-1.66,-1.6614,-1.6642,-1.667,-1.6673,-1.6691,-1.6705,-1.6699,-1.6704,-1.6706,-1.6693,-1.6694,-1.6695,-1.6695,0,0,-1.61,-1.6186,-1.619,-1.6219,-1.6284,-1.6313,-1.6347,-1.6398,-1.6419,-1.6464,-1.6495,-1.6554,-1.6571,-1.6604,-1.6637,-1.6656,-1.6661,-1.6672,-1.6674,-1.6669,-1.6696,-1.6683,-1.6684,-1.6679,-1.668,-1.668,-1.6692,0,-1.6102,-1.6162,-1.6204,-1.6248,-1.6283,-1.6326,-1.6356,-1.64,-1.6435,-1.6471,-1.6511,-1.6552,-1.6571,-1.6591,-1.6612,-1.6656,-1.6667,-1.6656,-1.671,-1.6712,-1.6695,-1.6686,-1.6672,-1.668,-1.6694,-1.6694,-1.6695,0,-1.6112,-1.6154,-1.6201,-1.6263,-1.6279,-1.6304,-1.6355,-1.6389,-1.644,-1.6465,-1.6501,-1.6535,-1.6575,-1.6586,-1.6642,-1.6633,-1.6658,-1.6683,-1.6685,-1.6692,-1.6703,-1.6694,-1.6684,-1.6685,-1.6698,-1.6698,-1.6698,0,-1.6081,-1.615,-1.6187,-1.6211,-1.6283,-1.63,-1.6332,-1.6383,-1.6412,-1.6457,-1.6476,-1.6526,-1.6554,-1.6592,-1.664,-1.6643,-1.6692,-1.6707,-1.6715,-1.6714,-1.6723,-1.6722,-1.6718,-1.6738,-1.6738,-1.6738,-1.6738,0,-1.6079,-1.6107,-1.6175,-1.6198,-1.6231,-1.628,-1.6312,-1.6348,-1.6393,-1.6426,-1.6467,-1.6497,-1.6557,-1.6595,-1.6633,-1.6675,-1.6687,-1.6709,-1.6719,-1.6705,-1.6703,-1.6723,-1.6724,-1.6739,-1.6739,-1.6739,-1.6739,0,-1.605,-1.6097,-1.6141,-1.6206,-1.6223,-1.6244,-1.6301,-1.6326,-1.6364,-1.6405,-1.6417,-1.6477,-1.6524,-1.6575,-1.664,-1.6665,-1.6705,-1.6719,-1.6687,-1.6693,-1.6699,-1.6697,-1.6707,-1.6712,-1.6729,-1.6728,-1.6728,0,-1.6046,-1.6068,-1.6135,-1.6159,-1.6189,-1.6227,-1.6256,-1.6306,-1.6335,-1.6396,-1.6415,-1.6464,-1.6507,-1.6581,-1.6631,-1.6681,-1.6697,-1.6697,-1.6705,-1.6691,-1.6698,-1.6696,-1.6699,-1.6694,-1.6694,-1.6694,-1.6693,0,-1.6034,-1.6056,-1.6095,-1.6143,-1.6176,-1.6216,-1.6258,-1.6276,-1.6335,-1.6366,-1.6414,-1.6447,-1.6512,-1.6562,-1.6619,-1.6654,-1.6684,-1.669,-1.6695,-1.6682,-1.6663,-1.6674,-1.6681,-1.669,-1.669,-1.6691,-1.6691,-1.6691,-1.6018,-1.604,-1.6091,-1.6134,-1.617,-1.6209,-1.6236,-1.6277,-1.6317,-1.6373,-1.6401,-1.6449,-1.6503,-1.6581,-1.6616,-1.6655,-1.6665,-1.6671,-1.6673,-1.6674,-1.6671,-1.6656,-1.6666,-1.6666,-1.6666,-1.6666,-1.6667,0,-1.6009,-1.6043,-1.6082,-1.6139,-1.6174,-1.6198,-1.6246,-1.6274,-1.6315,-1.6361,-1.6402,-1.6458,-1.6506,-1.6561,-1.6614,-1.6635,-1.6651,-1.6647,-1.6647,-1.6655,-1.6659,-1.665,-1.6634,-1.6634,-1.6634,-1.6634,-1.6634,-1.6634,-1.6008,-1.6047,-1.6075,-1.6133,-1.6169,-1.6215,-1.624,-1.6277,-1.6314,-1.6374,-1.6414,-1.6449,-1.65,-1.6556,-1.6603,-1.6618,-1.6636,-1.6629,-1.6648,-1.6651,-1.6654,-1.6656,-1.6648,-1.6632,-1.6632,-1.664,-1.664,-1.664]},{"header":{"parameterUnit":"m.s-1","parameterCategory":1,"la1":30.2991,"la2":30.254,"lo1":-89.0895,"lo2":-89.0444,"dx":0.0017,"dy":0.0017,"nx":28,"ny":28,"refTime":"2022-11-03T21:00:00:Z","depth":0,"parameterNumber":3,"parameterNumberName":"V-component_of_WINDS"},"data":[0,0,0,0,0,0,0,0,0,0,0,0,0,0,0,0,0,0,0,0,0,0,0,0,0,0,0,0,0,0,0,0,0,0,0,0,0,0,0,0,0,0,0,0,0,0,0,0,0,0,0,0,0,0,0,0,0,0,5.4496,5.4496,0,5.4503,5.4503,5.4503,5.4445,5.4444,5.4442,5.4441,5.4447,5.4448,5.445,0,0,0,0,0,0,0,0,0,0,0,0,0,5.4435,5.4436,5.4496,5.4496,5.4496,5.4503,5.4503,5.4503,5.4446,5.4444,5.4442,5.444,5.4446,5.4448,5.445,0,0,0,0,0,0,0,0,0,0,0,0,0,5.4454,5.4437,5.4496,5.4469,5.4466,5.4502,5.4503,5.4503,5.4446,5.4444,5.4441,5.4439,5.4445,5.4448,5.445,5.4513,0,0,5.4458,5.4459,0,0,0,0,0,0,0,0,5.4453,5.4456,5.4473,5.4471,5.4468,5.4471,5.4483,5.4506,5.4447,5.4454,5.4441,5.4438,5.4456,5.4458,5.4464,5.4513,5.4513,5.4458,5.4459,5.446,5.4461,0,0,0,0,0,0,0,5.4451,5.4455,5.4499,5.4473,5.447,5.4456,5.4456,5.4487,5.4468,5.4453,5.4449,5.445,5.4455,5.4462,5.4464,5.4513,5.4458,5.446,5.4461,5.4462,5.4617,5.4619,0,0,0,0,0,0,5.4454,5.4455,5.4498,5.4499,5.4454,5.4459,5.4459,5.4472,5.4468,5.4465,5.4452,5.4448,5.4459,5.4461,5.4464,5.4539,5.446,5.4463,5.4464,5.4614,5.4617,5.462,0,0,0,0,0,0,5.4453,5.4458,5.4498,5.4476,5.448,5.4463,5.4478,5.4474,5.4481,5.4467,5.4464,5.4463,5.4457,5.446,5.4502,5.4538,5.4464,5.4466,5.4611,5.4615,5.4619,5.4689,0,0,0,0,0,0,5.4451,5.4458,5.4482,5.4477,5.4481,5.4536,5.448,5.4475,5.4485,5.4479,5.4477,5.4474,5.4456,5.4498,5.4504,5.454,5.4468,5.4608,5.4613,5.4618,5.4683,5.4694,5.4704,0,0,0,0,0,5.4449,5.45,5.4483,5.4489,5.451,5.4538,5.4541,5.4519,5.4488,5.4512,5.4504,5.4474,5.4533,5.4503,5.4509,5.4547,5.4605,5.4611,5.4617,5.4678,5.4692,5.4704,0,0,0,0,0,0,5.4509,5.4499,5.448,5.4531,5.4536,5.4528,5.4557,5.4534,5.4547,5.4541,5.4513,5.4513,5.4559,5.4557,5.4523,5.4608,5.4564,5.4572,5.4608,5.4622,5.4632,5.4632,5.447,0,0,0,0,0,5.4528,5.4552,5.4542,5.4587,5.4591,5.4574,5.4585,5.4568,5.4572,5.4574,5.4569,5.4574,5.4594,5.4607,5.4624,5.4682,5.4682,5.4711,5.4722,5.473,5.4738,5.477,5.4784,5.464,5.464,5.464,0,0,5.4568,5.4565,5.4582,5.46,5.4601,5.4627,5.4576,5.4605,5.4624,5.4578,5.4618,5.4614,5.4618,5.4668,5.469,5.4668,5.4777,5.4738,5.4745,5.4747,5.4778,5.4791,5.4804,5.4644,5.4643,5.4642,0,0,5.4653,5.4653,5.4693,5.4696,5.47,5.4689,5.4699,5.4695,5.4692,5.4731,5.4698,5.472,5.4754,5.4759,5.4766,5.4857,5.483,5.4863,5.4919,5.4951,5.4962,5.4972,5.5007,5.5019,5.487,5.487,5.487,0,5.4702,5.474,5.4716,5.4748,5.4757,5.4718,5.4759,5.4763,5.4772,5.478,5.4755,5.4799,5.4798,5.4851,5.4873,5.4879,5.4891,5.4863,5.4963,5.4972,5.4981,5.5014,5.5026,5.4874,5.4874,5.4873,5.4873,0,5.48,5.4827,5.4858,5.487,5.4883,5.4919,5.4901,5.4917,5.49,5.4891,5.4933,5.4931,5.4949,5.496,5.4942,5.501,5.4997,5.4967,5.4923,5.5,5.503,5.5042,5.488,5.4878,5.4877,5.4876,0,0,5.4923,5.4923,5.4935,5.4941,5.4943,5.4964,5.4999,5.5017,5.5032,5.504,5.507,5.5101,5.5075,5.5083,5.5065,5.5093,5.5168,5.5061,5.5061,5.5083,5.5246,5.5269,5.5283,5.515,5.5152,5.5154,5.5246,0,5.5008,5.5068,5.5049,5.511,5.5136,5.51,5.513,5.5136,5.5129,5.515,5.5143,5.5166,5.5129,5.5134,5.516,5.5153,5.5201,5.5146,5.5179,5.518,5.518,5.5299,5.5322,5.5409,5.5257,5.5259,5.5261,0,5.5115,5.513,5.5194,5.5195,5.5205,5.5233,5.5249,5.5269,5.5275,5.5269,5.5279,5.5256,5.5291,5.5246,5.5295,5.5259,5.5271,5.527,5.5273,5.5276,5.5226,5.5307,5.5436,5.545,5.5278,5.5277,5.5276,0,5.5201,5.5236,5.528,5.5286,5.5287,5.5308,5.531,5.5313,5.5326,5.534,5.5349,5.5366,5.5376,5.5391,5.5374,5.5342,5.5426,5.5379,5.5423,5.5424,5.5443,5.5442,5.5578,5.5449,5.5448,5.5448,5.5448,0,5.5299,5.5341,5.5319,5.5346,5.5392,5.5369,5.5415,5.5412,5.5416,5.5442,5.5412,5.5437,5.5413,5.5436,5.5423,5.5467,5.5471,5.5468,5.5464,5.5471,5.5472,5.548,5.5474,5.5451,5.5451,5.545,5.5449,0,5.5403,5.539,5.5436,5.5434,5.5435,5.5469,5.5467,5.5492,5.5484,5.5518,5.5525,5.5512,5.5539,5.5523,5.5549,5.5541,5.5599,5.5586,5.5597,5.5594,5.564,5.5637,5.5786,5.5806,5.5662,5.5664,5.5665,0,5.5467,5.5498,5.5501,5.5517,5.5521,5.5546,5.556,5.5539,5.5555,5.5566,5.559,5.5614,5.5632,5.5676,5.5669,5.569,5.5678,5.5729,5.5681,5.5688,5.5681,5.568,5.5684,5.5739,5.5741,5.5742,5.5743,0,5.5583,5.5576,5.5597,5.5617,5.5634,5.5649,5.566,5.5675,5.5654,5.5674,5.5701,5.5715,5.5743,5.5768,5.5786,5.5787,5.5763,5.5759,5.577,5.5779,5.5785,5.5785,5.5625,5.5755,5.5754,5.5753,5.5753,5.5752,5.5671,5.5698,5.5705,5.573,5.5737,5.5749,5.5773,5.5769,5.5791,5.5813,5.5799,5.5832,5.5839,5.5861,5.5866,5.5891,5.5871,5.5887,5.5892,5.5897,5.5904,5.578,5.5894,5.5894,5.5894,5.5893,5.5893,0,5.5787,5.579,5.5813,5.5832,5.5852,5.5828,5.584,5.5858,5.5888,5.5896,5.5915,5.5948,5.5972,5.5968,5.599,5.6012,5.6001,5.6018,5.6017,5.6019,5.592,5.5908,5.6027,5.6027,5.6027,5.6027,5.6027,5.6027,5.585,5.5895,5.5889,5.5938,5.5941,5.5973,5.5983,5.5994,5.6001,5.6039,5.606,5.6057,5.6061,5.6084,5.6106,5.6104,5.6114,5.6136,5.6131,5.6038,5.6025,5.6013,5.6002,5.6138,5.6138,5.6228,5.6228,5.6229]}]]